Location: ?????
(55.8833°N, 37.6500°E)
Time: 11:34:34
(UTC+00:00)

Cosmos 1655 Rocket - Pass Details

Date: 27 February 2020
Orbit: 970 x 1006 km, 82.9° (Epoch: 08 April)

Event Time Altitude Azimuth Distance (km) Brightness Sun altitude
Rises 18:32:41 0° 347° (NNW) 3,752 7.7 -29.7°
Reaches altitude 10° 18:35:15 10° 345° (NNW) 2,796 6.9 -30.0°
Maximum altitude 18:41:36 67° 265° (W) 1,089 4.2 -30.8°
Enters shadow 18:42:27 60° 225° (SW) 1,140 4.2 -30.9°
